Location: Bridalveil Moraine
(37.7171°N, 119.6568°W)
Time: 23:34:54
(UTC+00:00)

Tiangong - Pass Details

Date: 01 February 2026
Orbit: 386 x 392 km, 41.5° (Epoch: 10 February)

Event Time Altitude Azimuth Distance (km) Brightness Sun altitude
Exits shadow 13:34:04 13° 200° (SSW) 1,275 0.4 -17.7°
Drops below altitude 10° 13:34:56 10° 185° (S) 1,420 0.8 -17.5°
Sets 13:37:47 0° 157° (SSE) 2,272 2.2 -17.0°
